Time,TemperatureF,DewpointF,PressureIn,WindDirection,WindDirectionDegrees,WindSpeedMPH,WindSpeedGustMPH,Humidity,HourlyPrecipIn,Conditions,Clouds,dailyrainin,SoftwareType,DateUTC
2013-03-26 00:02:00,15.0,6.0,-100.00,South,170,6.0,9.0,66,0.00,,,-99.99,,2013-03-26 06:02:00,
2013-03-26 00:12:00,14.0,6.0,-100.00,SSE,160,6.0,8.0,68,0.00,,,-99.99,,2013-03-26 06:12:00,
2013-03-26 00:22:00,14.0,6.0,-100.00,SSE,160,6.0,8.0,68,0.00,,,-99.99,,2013-03-26 06:22:00,
2013-03-26 00:32:00,15.0,7.0,-100.00,SSE,165,9.0,11.0,68,0.00,,,-99.99,,2013-03-26 06:32:00,
2013-03-26 00:42:00,15.0,6.0,-100.00,South,170,6.0,12.0,68,0.00,,,-99.99,,2013-03-26 06:42:00,
2013-03-26 00:52:00,15.0,6.0,-100.00,South,175,7.0,9.0,69,0.00,,,-99.99,,2013-03-26 06:52:00,
2013-03-26 01:02:00,14.0,6.0,-100.00,SSE,160,7.0,9.0,69,0.00,,,-99.99,,2013-03-26 07:02:00,
2013-03-26 01:12:00,14.0,6.0,-100.00,SSE,160,7.0,10.0,70,0.00,,,-99.99,,2013-03-26 07:12:00,
2013-03-26 01:22:00,14.0,6.0,-100.00,SSE,165,6.0,8.0,70,0.00,,,-99.99,,2013-03-26 07:22:00,
2013-03-26 01:33:00,14.0,6.0,-100.00,SSE,160,7.0,9.0,70,0.00,,,-99.99,,2013-03-26 07:33:00,
2013-03-26 01:42:00,14.0,6.0,-100.00,South,170,7.0,11.0,70,0.00,,,-99.99,,2013-03-26 07:42:00,
2013-03-26 01:52:00,14.0,6.0,-100.00,SSE,165,6.0,9.0,70,0.00,,,-99.99,,2013-03-26 07:52:00,
2013-03-26 02:02:00,13.0,6.0,-100.00,South,170,7.0,10.0,70,0.00,,,-99.99,,2013-03-26 08:02:00,
2013-03-26 02:12:00,13.0,6.0,-100.00,SSE,150,7.0,11.0,70,0.00,,,-99.99,,2013-03-26 08:12:00,
2013-03-26 02:22:00,13.0,5.0,-100.00,SSE,165,7.0,11.0,70,0.00,,,-99.99,,2013-03-26 08:22:00,
2013-03-26 02:32:00,13.0,6.0,-100.00,SSE,155,6.0,12.0,71,0.00,,,-99.99,,2013-03-26 08:32:00,
2013-03-26 02:42:00,13.0,5.0,-100.00,SSE,155,9.0,12.0,71,0.00,,,-99.99,,2013-03-26 08:42:00,
2013-03-26 02:52:00,12.0,5.0,-100.00,South,170,7.0,12.0,71,0.00,,,-99.99,,2013-03-26 08:52:00,
2013-03-26 03:02:00,12.0,5.0,-100.00,SSE,165,9.0,12.0,71,0.00,,,-99.99,,2013-03-26 09:02:00,
2013-03-26 03:12:00,12.0,5.0,-100.00,SSE,160,12.0,14.0,72,0.00,,,-99.99,,2013-03-26 09:12:00,
2013-03-26 03:22:00,13.0,5.0,-100.00,SSE,155,7.0,12.0,72,0.00,,,-99.99,,2013-03-26 09:22:00,
2013-03-26 03:33:00,13.0,5.0,-100.00,South,170,6.0,9.0,72,0.00,,,-99.99,,2013-03-26 09:33:00,
2013-03-26 03:42:00,13.0,5.0,-100.00,South,180,5.0,11.0,72,0.00,,,-99.99,,2013-03-26 09:42:00,
2013-03-26 03:52:00,13.0,6.0,-100.00,SSE,165,5.0,10.0,72,0.00,,,-99.99,,2013-03-26 09:52:00,
2013-03-26 04:02:00,13.0,6.0,-100.00,SSE,160,4.0,9.0,72,0.00,,,-99.99,,2013-03-26 10:02:00,
2013-03-26 04:12:00,13.0,6.0,-100.00,SSE,155,4.0,9.0,72,0.00,,,-99.99,,2013-03-26 10:12:00,
2013-03-26 04:22:00,14.0,7.0,-100.00,SSE,155,5.0,9.0,72,0.00,,,-99.99,,2013-03-26 10:22:00,
2013-03-26 04:32:00,14.0,7.0,-100.00,SSE,160,4.0,8.0,73,0.00,,,-99.99,,2013-03-26 10:32:00,
2013-03-26 04:42:00,14.0,7.0,-100.00,South,175,3.0,9.0,73,0.00,,,-99.99,,2013-03-26 10:42:00,
2013-03-26 04:52:00,14.0,8.0,-100.00,South,175,3.0,7.0,73,0.00,,,-99.99,,2013-03-26 10:52:00,
2013-03-26 05:03:00,15.0,8.0,-100.00,South,170,4.0,8.0,73,0.00,,,-99.99,,2013-03-26 11:03:00,
2013-03-26 05:12:00,15.0,8.0,-100.00,SSE,165,6.0,7.0,73,0.00,,,-99.99,,2013-03-26 11:12:00,
2013-03-26 05:22:00,15.0,8.0,-100.00,SSE,165,6.0,8.0,73,0.00,,,-99.99,,2013-03-26 11:22:00,
2013-03-26 05:32:00,16.0,9.0,-100.00,SSE,160,6.0,8.0,73,0.00,,,-99.99,,2013-03-26 11:32:00,
2013-03-26 05:42:00,16.0,9.0,-100.00,SSE,165,7.0,9.0,73,0.00,,,-99.99,,2013-03-26 11:42:00,
2013-03-26 05:52:00,17.0,10.0,-100.00,SSE,155,6.0,9.0,73,0.00,,,-99.99,,2013-03-26 11:52:00,
2013-03-26 06:03:00,17.0,10.0,-100.00,SSE,155,6.0,9.0,73,0.00,,,-99.99,,2013-03-26 12:03:00,
2013-03-26 06:12:00,18.0,10.0,-100.00,SSE,155,7.0,11.0,72,0.00,,,-99.99,,2013-03-26 12:12:00,
2013-03-26 06:22:00,18.0,10.0,-100.00,SSE,155,6.0,11.0,70,0.00,,,-99.99,,2013-03-26 12:22:00,
2013-03-26 06:32:00,19.0,10.0,-100.00,SSE,155,6.0,10.0,69,0.00,,,-99.99,,2013-03-26 12:32:00,
2013-03-26 06:42:00,19.0,11.0,-100.00,East,95,4.0,8.0,68,0.00,,,-99.99,,2013-03-26 12:42:00,
2013-03-26 06:52:00,20.0,12.0,-100.00,ESE,105,2.0,6.0,68,0.00,,,-99.99,,2013-03-26 12:52:00,
2013-03-26 07:03:00,20.0,11.0,-100.00,SE,140,6.0,7.0,67,0.00,,,-99.99,,2013-03-26 13:03:00,
2013-03-26 07:12:00,20.0,11.0,-100.00,East,90,4.0,9.0,67,0.00,,,-99.99,,2013-03-26 13:12:00,
2013-03-26 07:22:00,21.0,11.0,-100.00,SE,145,4.0,7.0,66,0.00,,,-99.99,,2013-03-26 13:22:00,
2013-03-26 07:32:00,22.0,12.0,-100.00,SSE,150,5.0,9.0,65,0.00,,,-99.99,,2013-03-26 13:32:00,
2013-03-26 07:42:00,21.0,11.0,-100.00,SSE,160,6.0,9.0,64,0.00,,,-99.99,,2013-03-26 13:42:00,
2013-03-26 07:52:00,21.0,11.0,-100.00,SSE,155,8.0,11.0,64,0.00,,,-99.99,,2013-03-26 13:52:00,
2013-03-26 08:02:00,22.0,12.0,-100.00,SSE,155,6.0,9.0,64,0.00,,,-99.99,,2013-03-26 14:02:00,
2013-03-26 08:11:00,22.0,11.0,-100.00,SSE,150,6.0,9.0,63,0.00,,,-99.99,,2013-03-26 14:11:00,
2013-03-26 08:22:00,23.0,12.0,-100.00,SSE,160,6.0,9.0,62,0.00,,,-99.99,,2013-03-26 14:22:00,
2013-03-26 08:32:00,24.0,12.0,-100.00,SSE,160,6.0,9.0,61,0.00,,,-99.99,,2013-03-26 14:32:00,
2013-03-26 08:42:00,24.0,12.0,-100.00,SSE,155,5.0,8.0,59,0.00,,,-99.99,,2013-03-26 14:42:00,
2013-03-26 08:52:00,25.0,13.0,-100.00,SSE,165,4.0,7.0,59,0.00,,,-99.99,,2013-03-26 14:52:00,
2013-03-26 09:02:00,26.0,13.0,-100.00,South,170,4.0,7.0,58,0.00,,,-99.99,,2013-03-26 15:02:00,
2013-03-26 09:12:00,27.0,14.0,-100.00,SSE,155,5.0,8.0,57,0.00,,,-99.99,,2013-03-26 15:12:00,
2013-03-26 09:22:00,28.0,14.0,-100.00,SSE,155,5.0,8.0,55,0.00,,,-99.99,,2013-03-26 15:22:00,
2013-03-26 09:33:00,31.0,16.0,-100.00,SSE,155,1.0,7.0,52,0.00,,,-99.99,,2013-03-26 15:33:00,
2013-03-26 09:43:00,33.0,15.0,-100.00,SSE,155,3.0,4.0,47,0.00,,,-99.99,,2013-03-26 15:43:00,
2013-03-26 09:52:00,36.0,17.0,-100.00,SE,140,1.0,4.0,45,0.00,,,-99.99,,2013-03-26 15:52:00,
2013-03-26 10:02:00,37.0,16.0,-100.00,SSE,155,2.0,4.0,42,0.00,,,-99.99,,2013-03-26 16:02:00,
2013-03-26 10:12:00,36.0,14.0,-100.00,WNW,290,9.0,11.0,40,0.00,,,-99.99,,2013-03-26 16:12:00,
2013-03-26 10:22:00,33.0,13.0,-100.00,WNW,285,9.0,15.0,43,0.00,,,-99.99,,2013-03-26 16:22:00,
2013-03-26 10:32:00,33.0,13.0,-100.00,WNW,300,7.0,12.0,44,0.00,,,-99.99,,2013-03-26 16:32:00,
2013-03-26 10:42:00,34.0,15.0,-100.00,NW,305,7.0,12.0,44,0.00,,,-99.99,,2013-03-26 16:42:00,
2013-03-26 10:53:00,36.0,15.0,-100.00,NNW,330,8.0,12.0,42,0.00,,,-99.99,,2013-03-26 16:53:00,
2013-03-26 11:02:00,36.0,15.0,-100.00,NW,310,6.0,12.0,41,0.00,,,-99.99,,2013-03-26 17:02:00,
2013-03-26 11:12:00,36.0,15.0,-100.00,WNW,295,9.0,13.0,40,0.00,,,-99.99,,2013-03-26 17:12:00,
2013-03-26 11:23:00,37.0,15.0,-100.00,WNW,290,9.0,12.0,39,0.00,,,-99.99,,2013-03-26 17:23:00,
2013-03-26 11:32:00,39.0,16.0,-100.00,WNW,285,6.0,10.0,38,0.00,,,-99.99,,2013-03-26 17:32:00,
2013-03-26 11:42:00,41.0,16.0,-100.00,West,280,6.0,10.0,36,0.00,,,-99.99,,2013-03-26 17:42:00,
2013-03-26 11:52:00,42.0,17.0,-100.00,WNW,285,4.0,9.0,35,0.00,,,-99.99,,2013-03-26 17:52:00,
2013-03-26 12:02:00,41.0,15.0,-100.00,West,280,6.0,10.0,34,0.00,,,-99.99,,2013-03-26 18:02:00,
2013-03-26 12:12:00,41.0,15.0,-100.00,WNW,285,5.0,11.0,33,0.00,,,-99.99,,2013-03-26 18:12:00,
2013-03-26 12:23:00,43.0,15.0,-100.00,WNW,295,3.0,6.0,32,0.00,,,-99.99,,2013-03-26 18:23:00,
2013-03-26 12:34:00,39.0,12.0,-100.00,WNW,285,6.0,10.0,31,0.00,,,-99.99,,2013-03-26 18:34:00,
2013-03-26 12:42:00,40.0,12.0,-100.00,WNW,290,6.0,10.0,30,0.00,,,-99.99,,2013-03-26 18:42:00,
2013-03-26 12:52:00,40.0,11.0,-100.00,WNW,300,4.0,9.0,30,0.00,,,-99.99,,2013-03-26 18:52:00,
2013-03-26 13:02:00,42.0,12.0,-100.00,WNW,285,6.0,8.0,29,0.00,,,-99.99,,2013-03-26 19:02:00,
2013-03-26 13:12:00,44.0,13.0,-100.00,WNW,285,2.0,10.0,28,0.00,,,-99.99,,2013-03-26 19:12:00,
2013-03-26 13:22:00,43.0,11.0,-100.00,NW,310,4.0,9.0,27,0.00,,,-99.99,,2013-03-26 19:22:00,
2013-03-26 13:32:00,44.0,13.0,-100.00,West,275,7.0,9.0,27,0.00,,,-99.99,,2013-03-26 19:32:00,
2013-03-26 13:42:00,45.0,13.0,-100.00,WNW,285,6.0,12.0,26,0.00,,,-99.99,,2013-03-26 19:42:00,
2013-03-26 13:52:00,46.0,13.0,-100.00,WNW,285,4.0,13.0,25,0.00,,,-99.99,,2013-03-26 19:52:00,
2013-03-26 14:02:00,47.0,12.0,-100.00,WSW,250,1.0,9.0,23,0.00,,,-99.99,,2013-03-26 20:02:00,
2013-03-26 14:12:00,47.0,12.0,-100.00,WSW,250,1.0,9.0,23,0.00,,,-99.99,,2013-03-26 20:12:00,
2013-03-26 14:22:00,48.0,11.0,-100.00,WSW,245,4.0,11.0,21,0.00,,,-99.99,,2013-03-26 20:22:00,
2013-03-26 14:32:00,52.0,13.0,-100.00,South,175,7.0,20.0,20,0.00,,,-99.99,,2013-03-26 20:32:00,
2013-03-26 14:42:00,50.0,11.0,-100.00,WSW,240,5.0,16.0,20,0.00,,,-99.99,,2013-03-26 20:42:00,
2013-03-26 14:52:00,49.0,11.0,-100.00,SW,215,6.0,12.0,20,0.00,,,-99.99,,2013-03-26 20:52:00,
2013-03-26 15:02:00,55.0,15.0,-100.00,West,265,6.0,16.0,20,0.00,,,-99.99,,2013-03-26 21:02:00,
2013-03-26 15:12:00,54.0,15.0,-100.00,WSW,255,6.0,12.0,20,0.00,,,-99.99,,2013-03-26 21:12:00,
2013-03-26 15:22:00,54.0,15.0,-100.00,West,270,9.0,14.0,20,0.00,,,-99.99,,2013-03-26 21:22:00,
2013-03-26 15:32:00,55.0,15.0,-100.00,WNW,295,3.0,18.0,20,0.00,,,-99.99,,2013-03-26 21:32:00,
2013-03-26 15:42:00,54.0,15.0,-100.00,WNW,285,10.0,13.0,20,0.00,,,-99.99,,2013-03-26 21:42:00,
2013-03-26 15:52:00,52.0,14.0,-100.00,WNW,285,9.0,13.0,21,0.00,,,-99.99,,2013-03-26 21:52:00,
2013-03-26 16:02:00,51.0,14.0,-100.00,WNW,300,7.0,12.0,22,0.00,,,-99.99,,2013-03-26 22:02:00,
2013-03-26 16:12:00,51.0,15.0,-100.00,WNW,285,6.0,11.0,23,0.00,,,-99.99,,2013-03-26 22:12:00,
2013-03-26 16:22:00,50.0,14.0,-100.00,WNW,290,6.0,14.0,23,0.00,,,-99.99,,2013-03-26 22:22:00,
2013-03-26 16:33:00,51.0,15.0,-100.00,North,355,3.0,9.0,23,0.00,,,-99.99,,2013-03-26 22:33:00,
2013-03-26 16:42:00,50.0,15.0,-100.00,East,100,3.0,18.0,24,0.00,,,-99.99,,2013-03-26 22:42:00,
2013-03-26 16:52:00,50.0,15.0,-100.00,West,275,3.0,7.0,25,0.00,,,-99.99,,2013-03-26 22:52:00,
2013-03-26 17:01:00,49.0,15.0,-100.00,ESE,120,9.0,17.0,24,0.00,,,-99.99,,2013-03-26 23:01:00,
2013-03-26 17:10:00,49.0,15.0,-100.00,SW,230,6.0,16.0,25,0.00,,,-99.99,,2013-03-26 23:10:00,
2013-03-26 17:22:00,50.0,16.0,-100.00,ENE,60,3.0,12.0,25,0.00,,,-99.99,,2013-03-26 23:22:00,
2013-03-26 17:32:00,49.0,15.0,-100.00,SE,145,3.0,18.0,25,0.00,,,-99.99,,2013-03-26 23:32:00,
2013-03-26 17:42:00,49.0,16.0,-100.00,NNE,15,4.0,12.0,25,0.00,,,-99.99,,2013-03-26 23:42:00,
2013-03-26 17:52:00,49.0,16.0,-100.00,NE,50,4.0,9.0,25,0.00,,,-99.99,,2013-03-26 23:52:00,
2013-03-26 18:02:00,49.0,15.0,-100.00,NW,305,2.0,14.0,25,0.00,,,-99.99,,2013-03-27 00:02:00,
2013-03-26 18:12:00,49.0,15.0,-100.00,West,280,6.0,16.0,25,0.00,,,-99.99,,2013-03-27 00:12:00,
2013-03-26 18:22:00,49.0,15.0,-100.00,West,260,1.0,13.0,25,0.00,,,-99.99,,2013-03-27 00:22:00,
2013-03-26 18:32:00,49.0,15.0,-100.00,ENE,65,1.0,9.0,25,0.00,,,-99.99,,2013-03-27 00:32:00,
2013-03-26 18:42:00,48.0,15.0,-100.00,NW,325,0.0,7.0,25,0.00,,,-99.99,,2013-03-27 00:42:00,
2013-03-26 18:52:00,47.0,15.0,-100.00,SE,145,0.0,0.0,27,0.00,,,-99.99,,2013-03-27 00:52:00,
2013-03-26 19:02:00,46.0,16.0,-100.00,West,275,0.0,0.0,29,0.00,,,-99.99,,2013-03-27 01:02:00,
2013-03-26 19:12:00,47.0,17.0,-100.00,NE,50,4.0,6.0,29,0.00,,,-99.99,,2013-03-27 01:12:00,
2013-03-26 19:22:00,46.0,16.0,-100.00,East,80,1.0,7.0,29,0.00,,,-99.99,,2013-03-27 01:22:00,
2013-03-26 19:33:00,47.0,17.0,-100.00,SSE,150,11.0,22.0,30,0.00,,,-99.99,,2013-03-27 01:33:00,
2013-03-26 19:42:00,46.0,18.0,-100.00,ESE,120,2.0,10.0,31,0.00,,,-99.99,,2013-03-27 01:42:00,
2013-03-26 19:52:00,46.0,18.0,-100.00,SE,135,7.0,9.0,32,0.00,,,-99.99,,2013-03-27 01:52:00,
2013-03-26 20:02:00,45.0,18.0,-100.00,NE,55,1.0,8.0,33,0.00,,,-99.99,,2013-03-27 02:02:00,
2013-03-26 20:12:00,43.0,18.0,-100.00,SE,125,4.0,4.0,36,0.00,,,-99.99,,2013-03-27 02:12:00,
2013-03-26 20:22:00,42.0,19.0,-100.00,SE,130,3.0,7.0,38,0.00,,,-99.99,,2013-03-27 02:22:00,
2013-03-26 20:32:00,42.0,20.0,-100.00,East,90,4.0,6.0,41,0.00,,,-99.99,,2013-03-27 02:32:00,
2013-03-26 20:42:00,42.0,21.0,-100.00,East,100,4.0,7.0,41,0.00,,,-99.99,,2013-03-27 02:42:00,
2013-03-26 20:52:00,41.0,21.0,-100.00,ESE,120,5.0,7.0,43,0.00,,,-99.99,,2013-03-27 02:52:00,
2013-03-26 21:02:00,41.0,21.0,-100.00,ESE,110,1.0,8.0,44,0.00,,,-99.99,,2013-03-27 03:02:00,
2013-03-26 21:12:00,41.0,22.0,-100.00,SE,140,6.0,9.0,46,0.00,,,-99.99,,2013-03-27 03:12:00,
2013-03-26 21:22:00,42.0,23.0,-100.00,SE,145,4.0,7.0,46,0.00,,,-99.99,,2013-03-27 03:22:00,
2013-03-26 21:33:00,41.0,22.0,-100.00,South,180,3.0,6.0,46,0.00,,,-99.99,,2013-03-27 03:33:00,
2013-03-26 21:42:00,40.0,22.0,-100.00,SSE,150,3.0,4.0,48,0.00,,,-99.99,,2013-03-27 03:42:00,
2013-03-26 21:52:00,39.0,22.0,-100.00,SSW,195,2.0,6.0,49,0.00,,,-99.99,,2013-03-27 03:52:00,
2013-03-26 22:02:00,40.0,23.0,-100.00,SW,220,0.0,6.0,50,0.00,,,-99.99,,2013-03-27 04:02:00,
2013-03-26 22:13:00,41.0,23.0,-100.00,East,80,0.0,1.0,49,0.00,,,-99.99,,2013-03-27 04:13:00,
2013-03-26 22:23:00,40.0,22.0,-100.00,North,10,0.0,0.0,49,0.00,,,-99.99,,2013-03-27 04:23:00,
2013-03-26 22:33:00,40.0,23.0,-100.00,East,90,5.0,7.0,49,0.00,,,-99.99,,2013-03-27 04:33:00,
2013-03-26 22:42:00,41.0,23.0,-100.00,ESE,120,3.0,4.0,49,0.00,,,-99.99,,2013-03-27 04:42:00,
2013-03-26 22:52:00,41.0,23.0,-100.00,ESE,110,3.0,9.0,48,0.00,,,-99.99,,2013-03-27 04:52:00,
2013-03-26 23:02:00,42.0,23.0,-100.00,SSE,155,1.0,7.0,47,0.00,,,-99.99,,2013-03-27 05:02:00,
2013-03-26 23:12:00,41.0,23.0,-100.00,ESE,110,5.0,7.0,48,0.00,,,-99.99,,2013-03-27 05:12:00,
2013-03-26 23:23:00,41.0,23.0,-100.00,ESE,115,3.0,6.0,49,0.00,,,-99.99,,2013-03-27 05:23:00,
2013-03-26 23:32:00,41.0,23.0,-100.00,East,100,4.0,6.0,49,0.00,,,-99.99,,2013-03-27 05:32:00,
2013-03-26 23:42:00,41.0,24.0,-100.00,East,90,4.0,7.0,50,0.00,,,-99.99,,2013-03-27 05:42:00,
2013-03-26 23:52:00,40.0,24.0,-100.00,ESE,110,2.0,6.0,50,0.00,,,-99.99,,2013-03-27 05:52:00,